GW7547 Weather Reports


time (UTC)temp
F
wind
direction
speed
knots
gust
knots
rain 1hr
in
rain 24hr
in
rain mn
in
humidity
%
barometer
mb
20260906172013 96 250 0.0 7.0 0.00 0.00 0.00 47 1016.1
20260906171504 95 117 1.7 7.0 0.00 0.00 0.00 46 1016.2
20260906171003 95 98 0.9 3.5 0.00 0.00 0.00 48 1016.3
20260906170510 95 92 0.0 2.6 0.00 0.00 0.00 47 1016.3
20260906170006 95 98 0.9 2.6 0.00 0.00 0.00 49 1016.3
20260906165505 94 161 0.9 2.6 0.00 0.00 0.00 50 1016.4
20260906165007 94 134 0.9 2.6 0.00 0.00 0.00 49 1016.4
20260906164524 95 141 0.9 2.6 0.00 0.00 0.00 50 1016.5
20260906164004 94 325 0.9 3.5 0.00 0.00 0.00 51 1016.5
20260906163504 93 130 0.9 3.5 0.00 0.00 0.00 49 1016.6
20260906163018 94 80 0.9 5.2 0.00 0.00 0.00 49 1016.6
20260906162516 94 57 0.0 5.2 0.00 0.00 0.00 50 1016.6
20260906162004 93 40 0.0 1.7 0.00 0.00 0.00 52 1016.6
20260906161516 93 30 0.9 1.7 0.00 0.00 0.00 53 1016.6
20260906161011 93 38 0.0 3.5 0.00 0.00 0.00 52 1016.7
20260906160505 92 18 0.9 3.5 0.00 0.00 0.00 52 1016.7
20260906160010 92 92 1.7 3.5 0.00 0.00 0.00 51 1016.7
20260906155511 92 119 0.0 1.7 0.00 0.00 0.00 51 1016.6
20260906155013 90 121 0.9 3.5 0.00 0.00 0.00 54 1016.6
20260906154518 90 188 0.9 3.5 0.00 0.00 0.00 53 1016.6
20260906154006 90 190 0.9 2.6 0.00 0.00 0.00 57 1016.6
20260906153512 90 103 0.0 1.7 0.00 0.00 0.00 55 1016.6
20260906153015 89 123 0.9 1.7 0.00 0.00 0.00 54 1016.4
20260906152506 90 88 0.0 1.7 0.00 0.00 0.00 57 1016.4
20260906152012 90 151 0.0 1.7 0.00 0.00 0.00 56 1016.4
20260906151530 87 152 0.0 1.7 0.00 0.00 0.00 1016.4
20260906151005 87 133 0.9 1.7 0.00 0.00 0.00 1016.4
20260906150509 88 123 0.0 1.7 0.00 0.00 0.00 56 1016.4
20260906150024 88 123 0.0 1.7 0.00 0.00 0.00 56 1016.4
20260906145507 87 123 0.0 1.7 0.00 0.00 0.00 59 1016.4
20260906145007 87 252 0.0 1.7 0.00 0.00 0.00 59 1016.3
20260906144533 86 234 0.0 1.7 0.00 0.00 0.00 60 1016.3
20260906144014 85 234 0.0 1.7 0.00 0.00 0.00 59 1016.3
20260906143506 85 250 0.9 1.7 0.00 0.00 0.00 60 1016.3
20260906143018 85 219 0.0 1.7 0.00 0.00 0.00 64 1016.3
20260906142514 84 175 0.0 1.7 0.00 0.00 0.00 63 1016.4
20260906142004 84 101 0.0 1.7 0.00 0.00 0.00 63 1016.4
20260906141515 84 101 0.0 1.7 0.00 0.00 0.00 66 1016.5
20260906141009 83 101 0.0 2.6 0.00 0.00 0.00 65 1016.4
20260906140513 83 78 0.0 2.6 0.00 0.00 0.00 68 1016.4
20260906140010 82 90 0.9 1.7 0.00 0.00 0.00 68 1016.3
20260906135508 82 107 0.9 1.7 0.00 0.00 0.00 69 1016.3
20260906135010 81 107 0.0 1.7 0.00 0.00 0.00 71 1016.2
20260906134518 80 107 0.0 1.7 0.00 0.00 0.00 73 1016.2
20260906134007 79 107 0.0 1.7 0.00 0.00 0.00 75 1016.2
20260906133512 78 109 0.0 1.7 0.00 0.00 0.00 76 1016.2
20260906133030 78 109 0.9 1.7 0.00 0.00 0.00 75 1016.2
20260906132506 77 128 0.9 1.7 0.00 0.00 0.00 76 1016.2
20260906132008 77 128 0.0 1.7 0.00 0.00 0.00 76 1016.2
20260906131526 76 128 0.0 1.7 0.00 0.00 0.00 78 1016.1
20260906131004 75 128 0.0 1.7 0.00 0.00 0.00 83 1016.1
20260906130506 74 128 0.0 0.9 0.00 0.00 0.00 84 1016.0
20260906130023 74 128 0.0 1.7 0.00 0.00 0.00 84 1016.0
20260906125516 73 128 0.0 1.7 0.00 0.00 0.00 86 1016.0
20260906125009 72 128 0.0 0.9 0.00 0.00 0.00 86 1015.9
20260906124533 71 128 0.0 1.7 0.00 0.00 0.00 86 1015.9
20260906124014 71 128 0.0 1.7 0.00 0.00 0.00 86 1015.8
20260906123516 70 128 0.0 0.0 0.00 0.00 0.00 88 1015.6
20260906123030 69 128 0.0 0.0 0.00 0.00 0.00 88 1015.5
20260906122516 69 128 0.0 0.0 0.00 0.00 0.00 89 1015.4
20260906122016 69 128 0.0 0.0 0.00 0.00 0.00 89 1015.4
20260906121516 68 128 0.0 0.0 0.00 0.00 0.00 89 1015.3
20260906121007 68 128 0.0 0.0 0.00 0.00 0.00 89 1015.3
20260906120513 68 128 0.0 0.0 0.00 0.00 0.00 89 1015.2
20260906120031 68 128 0.0 0.0 0.00 0.00 0.00 89 1015.2
20260906115508 68 128 0.0 0.0 0.00 0.00 0.00 89 1015.1
20260906115010 68 128 0.0 0.0 0.00 0.00 0.00 89 1015.0
20260906114530 68 128 0.0 0.0 0.00 0.00 0.00 89 1015.0
20260906114006 68 128 0.0 0.0 0.00 0.00 0.00 89 1014.9
20260906113510 68 128 0.0 0.0 0.00 0.00 0.00 88 1014.9
20260906113027 68 128 0.0 0.0 0.00 0.00 0.00 89 1014.9
20260906112502 68 128 0.0 0.0 0.00 0.00 0.00 89 1014.9
20260906112007 68 128 0.0 0.0 0.00 0.00 0.00 89 1014.9
20260906111530 68 128 0.0 0.0 0.00 0.00 0.00 89 1014.9
20260906111003 68 128 0.0 0.0 0.00 0.00 0.00 88 1014.9
20260906110506 68 128 0.0 0.0 0.00 0.00 0.00 88 1014.9
20260906110023 69 128 0.0 0.0 0.00 0.00 0.00 88 1015.0
20260906105514 69 128 0.0 0.0 0.00 0.00 0.00 88 1014.9
20260906105002 69 128 0.0 0.0 0.00 0.00 0.00 88 1014.9
20260906104518 69 128 0.0 0.0 0.00 0.00 0.00 88 1014.9
20260906104012 69 128 0.0 0.0 0.00 0.00 0.00 88 1014.9
20260906103503 69 128 0.0 0.0 0.00 0.00 0.00 87 1015.0
20260906103017 69 128 0.0 0.0 0.00 0.00 0.00 87 1014.9
20260906102511 69 128 0.0 0.0 0.00 0.00 0.00 86 1015.0
20260906102014 70 128 0.0 0.0 0.00 0.00 0.00 86 1014.9
20260906101512 70 128 0.0 0.0 0.00 0.00 0.00 86 1014.9
20260906101008 70 128 0.0 0.0 0.00 0.00 0.00 86 1014.7
20260906100516 70 128 0.0 0.0 0.00 0.00 0.00 85 1014.7
20260906100009 70 128 0.0 0.0 0.00 0.00 0.00 85 1014.8
20260906095508 70 128 0.0 0.0 0.00 0.00 0.00 85 1014.7
20260906095012 70 128 0.0 0.0 0.00 0.00 0.00 85 1014.6
20260906094530 70 128 0.0 0.0 0.00 0.00 0.00 85 1014.6
20260906094006 71 128 0.0 0.0 0.00 0.00 0.00 84 1014.6
20260906093511 71 128 0.0 0.0 0.00 0.00 0.00 84 1014.6
20260906093026 70 128 0.0 0.0 0.00 0.00 0.00 85 1014.6
20260906092503 71 128 0.0 0.0 0.00 0.00 0.00 84 1014.5
20260906092007 71 128 0.0 0.0 0.00 0.00 0.00 83 1014.5
20260906091532 71 128 0.0 0.0 0.00 0.00 0.00 84 1014.5
20260906091014 71 128 0.0 0.0 0.00 0.00 0.00 83 1014.5
20260906090507 71 128 0.0 0.0 0.00 0.00 0.00 83 1014.5
20260906090021 71 128 0.0 0.0 0.00 0.00 0.00 83 1014.5
20260906085517 72 128 0.0 0.0 0.00 0.00 0.00 82 1014.4
20260906085004 72 128 0.0 0.0 0.00 0.00 0.00 82 1014.4
20260906084516 72 128 0.0 0.0 0.00 0.00 0.00 82 1014.4
20260906084013 72 128 0.0 0.0 0.00 0.00 0.00 81 1014.3
20260906083514 72 128 0.0 0.0 0.00 0.00 0.00 81 1014.5
20260906083013 72 128 0.0 0.0 0.00 0.00 0.00 81 1014.3
20260906082506 72 128 0.0 0.0 0.00 0.00 0.00 81 1014.4
20260906082012 72 128 0.0 0.0 0.00 0.00 0.00 80 1014.3
20260906081511 72 128 0.0 0.0 0.00 0.00 0.00 80 1014.3
20260906081008 73 128 0.0 0.0 0.00 0.00 0.00 79 1014.3
20260906080511 73 128 0.0 0.0 0.00 0.00 0.00 79 1014.3
20260906080033 72 128 0.0 0.0 0.00 0.00 0.00 79 1014.4
20260906075506 73 128 0.0 0.0 0.00 0.00 0.00 79 1014.3
20260906075010 72 128 0.0 0.0 0.00 0.00 0.00 80 1014.3
20260906074528 73 128 0.0 0.0 0.00 0.00 0.00 79 1014.4
20260906074015 73 128 0.0 0.0 0.00 0.00 0.00 79 1014.4
20260906073509 72 128 0.0 0.0 0.00 0.00 0.00 80 1014.4
20260906073026 73 128 0.0 0.0 0.00 0.00 0.00 79 1014.4
20260906072514 73 128 0.0 0.0 0.00 0.00 0.00 78 1014.4
20260906072006 74 128 0.0 0.0 0.00 0.00 0.00 77 1014.4
20260906071523 74 128 0.0 0.0 0.00 0.00 0.00 77 1014.5
20260906071018 73 128 0.0 0.0 0.00 0.00 0.00 78 1014.4
20260906070516 73 128 0.0 1.7 0.00 0.00 0.00 78 1014.6
20260906070017 74 128 0.0 1.7 0.00 0.00 0.00 78 1014.7
20260906065510 75 128 0.0 1.7 0.00 0.00 0.00 76 1014.6
20260906065015 75 128 0.0 1.7 0.00 0.00 0.00 74 1014.6
20260906064514 75 128 0.0 1.7 0.00 0.00 0.00 75 1014.7
20260906064011 76 128 0.0 0.9 0.00 0.00 0.00 74 1014.7
20260906063512 77 128 0.0 1.7 0.00 0.00 0.00 71 1014.7
20260906063036 77 128 0.9 1.7 0.00 0.00 0.00 71 1014.7
20260906062506 78 128 0.0 0.0 0.00 0.00 0.00 71 1014.7
20260906062012 78 128 0.0 0.0 0.00 0.00 0.00 69 1014.9
20260906061531 77 128 0.0 0.0 0.00 0.00 0.00 69 1014.7
20260906061004 77 128 0.0 0.0 0.00 0.00 0.00 70 1014.6
20260906060511 76 128 0.0 0.0 0.00 0.00 0.00 73 1014.6
20260906060029 75 128 0.0 0.0 0.00 0.00 0.00 74 1014.7
20260906055517 76 128 0.0 0.0 0.00 0.00 0.00 74 1014.8
20260906055008 76 128 0.0 0.0 0.00 0.00 0.00 73 1014.6
20260906054538 76 128 0.0 0.0 0.00 0.00 0.00 74 1014.7
20260906054016 76 128 0.0 0.0 0.00 0.00 0.00 72 1014.7
20260906053507 77 128 0.0 0.0 0.00 0.00 0.00 70 1014.7
20260906053022 77 128 0.0 0.0 0.00 0.00 0.00 70 1014.5
20260906052512 77 128 0.0 0.0 0.00 0.00 0.00 73 1014.6
20260906052019 77 128 0.0 1.7 0.00 0.00 0.00 71 1014.6
20260906051519 77 128 0.0 1.7 0.00 0.00 0.00 72 1014.6
20260906051012 76 128 0.0 1.7 0.00 0.00 0.00 72 1014.5
20260906050513 76 128 0.0 0.9 0.00 0.00 0.00 72 1014.5
20260906050016 77 128 0.0 0.9 0.00 0.00 0.00 72 1014.6
20260906045513 78 128 0.0 0.0 0.00 0.00 0.00 68 1014.5
20260906045014 77 128 0.0 0.0 0.00 0.00 0.00 68 1014.5
20260906044530 77 128 0.0 0.0 0.00 0.00 0.00 70 1014.5
20260906044010 77 128 0.0 1.7 0.00 0.00 0.00 70 1014.6
20260906043510 77 128 0.0 1.7 0.00 0.00 0.00 71 1014.6
20260906043033 78 128 0.0 0.0 0.00 0.00 0.00 70 1014.5
20260906042518 78 128 0.0 0.0 0.00 0.00 0.00 69 1014.7
20260906042012 78 128 0.0 1.7 0.00 0.00 0.00 69 1014.9
20260906041529 78 128 0.0 1.7 0.00 0.00 0.00 69 1014.7
20260906041016 79 128 0.0 1.7 0.00 0.00 0.00 68 1014.6
20260906040508 79 128 0.0 1.7 0.00 0.00 0.00 67 1014.6
20260906040028 79 128 0.0 1.7 0.00 0.00 0.00 67 1014.6
20260906035514 79 128 0.0 1.7 0.00 0.00 0.00 67 1014.6
20260906035018 80 128 0.0 1.7 0.00 0.00 0.00 65 1014.7
20260906034524 79 128 0.0 0.0 0.00 0.00 0.00 66 1014.7
20260906034014 79 128 0.0 0.0 0.00 0.00 0.00 66 1014.7
20260906033515 79 128 0.0 0.9 0.00 0.00 0.00 66 1014.6
20260906033024 79 128 0.0 1.7 0.00 0.00 0.00 66 1014.6
20260906032512 79 128 0.0 1.7 0.00 0.00 0.00 66 1014.5
20260906032014 79 128 0.0 1.7 0.00 0.00 0.00 66 1014.4
20260906031537 80 128 0.0 0.9 0.00 0.00 0.00 65 1014.4
20260906031010 79 128 0.0 1.7 0.00 0.00 0.00 65 1014.5
20260906030515 80 128 0.0 1.7 0.00 0.00 0.00 64 1014.5
20260906030034 81 128 0.0 1.7 0.00 0.00 0.00 62 1014.3
20260906025508 80 109 0.9 1.7 0.00 0.00 0.00 63 1014.3
20260906025014 80 69 0.0 1.7 0.00 0.00 0.00 64 1014.2
20260906024528 82 93 0.0 2.6 0.00 0.00 0.00 60 1014.2
20260906024016 82 93 0.0 2.6 0.00 0.00 0.00 60 1014.1
20260906023510 82 94 0.0 1.7 0.00 0.00 0.00 59 1014.0
20260906023042 82 105 0.0 1.7 0.00 0.00 0.00 59 1013.9
20260906022515 82 97 0.0 1.7 0.00 0.00 0.00 59 1013.9
20260906022009 82 97 0.0 1.7 0.00 0.00 0.00 59 1014.0
20260906021527 82 97 0.0 1.7 0.00 0.00 0.00 59 1013.8
20260906021022 82 97 0.0 1.7 0.00 0.00 0.00 59 1013.8
20260906020520 83 97 0.0 1.7 0.00 0.00 0.00 59 1013.7
20260906020027 83 97 0.0 1.7 0.00 0.00 0.00 59 1013.7
20260906015516 83 34 0.0 1.7 0.00 0.00 0.00 58 1013.6
20260906015016 83 34 0.0 1.7 0.00 0.00 0.00 58 1013.5
20260906014527 83 34 0.0 1.7 0.00 0.00 0.00 58 1013.5
20260906014013 83 34 0.0 1.7 0.00 0.00 0.00 58 1013.5
20260906013516 83 28 0.0 0.0 0.00 0.00 0.00 58 1013.5
20260906013041 84 28 0.0 0.9 0.00 0.00 0.00 57 1013.4
20260906012510 84 28 0.0 1.7 0.00 0.00 0.00 57 1013.3
20260906012014 84 28 0.0 1.7 0.00 0.00 0.00 57 1013.4
20260906011538 85 65 0.0 1.7 0.00 0.00 0.00 56 1013.4
20260906011010 85 65 0.0 1.7 0.00 0.00 0.00 56 1013.3
20260906010512 86 30 0.0 1.7 0.00 0.00 0.00 55 1013.2
20260906010039 86 30 0.0 2.6 0.00 0.00 0.00 54 1013.4
20260906005507 86 43 0.9 4.3 0.00 0.00 0.00 54 1013.4
20260906005014 86 32 1.7 4.3 0.00 0.00 0.00 54 1013.3
20260906004510 85 39 0.9 3.5 0.00 0.00 0.00 55 1013.4
20260906004004 85 25 0.9 1.7 0.00 0.00 0.00 58 1013.5
20260906003508 86 110 0.0 1.7 0.00 0.00 0.00 56 1013.3
20260906003005 87 110 0.0 1.7 0.00 0.00 0.00 53 1013.3
20260906002503 88 110 0.0 1.7 0.00 0.00 0.00 54 1013.2
20260906002009 88 110 0.0 0.0 0.00 0.00 0.00 50 1013.3
20260906001524 89 110 0.0 0.9 0.00 0.00 0.00 50 1013.3
20260906001003 89 110 0.0 1.7 0.00 0.00 0.00 50 1013.3
20260906000505 90 110 0.0 1.7 0.00 0.00 0.00 50 1013.3
20260906000037 91 66 0.0 1.7 0.00 0.00 0.00 47 1013.4
20260905235504 91 76 0.0 2.6 0.00 0.00 0.00 46 1013.4
20260905235006 92 103 0.0 2.6 0.00 0.00 0.00 1013.4
20260905234518 92 82 0.9 1.7 0.00 0.00 0.00 45 1013.3
20260905234011 93 29 0.0 1.7 0.00 0.00 0.00 45 1013.4
20260905233504 93 29 0.9 2.6 0.00 0.00 0.00 46 1013.4
20260905233012 93 24 0.9 2.6 0.00 0.00 0.00 45 1013.3
20260905232510 94 15 0.0 3.5 0.00 0.00 0.00 46 1013.2
20260905232013 94 30 1.7 4.3 0.00 0.00 0.00 43 1013.2
20260905231510 96 12 2.6 4.3 0.00 0.00 0.00 41 1013.3
20260905231008 97 202 0.0 2.6 0.00 0.00 0.00 36 1013.1
20260905230512 98 232 0.9 2.6 0.00 0.00 0.00 35 1013.0
20260905230008 98 211 0.9 2.6 0.00 0.00 0.00 35 1012.9
20260905225507 98 120 0.9 2.6 0.00 0.00 0.00 35 1013.1
20260905225009 98 96 0.9 2.6 0.00 0.00 0.00 36 1013.0
20260905224531 98 82 0.0 1.7 0.00 0.00 0.00 37 1013.0
20260905224004 98 82 0.0 1.7 0.00 0.00 0.00 35 1013.0
20260905223510 98 118 0.0 2.6 0.00 0.00 0.00 36 1013.1
20260905223026 98 118 0.9 2.6 0.00 0.00 0.00 36 1013.0
20260905222504 98 148 0.0 1.7 0.00 0.00 0.00 36 1013.0
20260905222008 99 143 0.0 1.7 0.00 0.00 0.00 36 1013.1
20260905221523 98 143 0.0 2.6 0.00 0.00 0.00 35 1013.2
20260905221016 98 142 0.0 2.6 0.00 0.00 0.00 35 1013.1
20260905220506 99 148 0.0 1.7 0.00 0.00 0.00 36 1013.2
20260905220017 98 148 0.9 1.7 0.00 0.00 0.00 33 1013.2
20260905215514 99 97 0.9 2.6 0.00 0.00 0.00 36 1013.3
20260905215004 98 90 0.9 2.6 0.00 0.00 0.00 35 1013.2
20260905214518 99 100 0.9 2.6 0.00 0.00 0.00 36 1013.4
20260905214010 98 157 0.9 1.7 0.00 0.00 0.00 36 1013.4
20260905213517 99 9 0.0 1.7 0.00 0.00 0.00 37 1013.3
20260905213012 99 260 0.0 2.6 0.00 0.00 0.00 35 1013.3
20260905212510 98 261 0.9 2.6 0.00 0.00 0.00 35 1013.4
20260905212011 98 190 0.9 3.5 0.00 0.00 0.00 37 1013.5
20260905211507 98 234 0.9 4.3 0.00 0.00 0.00 36 1013.5
20260905211006 98 220 2.6 4.3 0.00 0.00 0.00 36 1013.6
20260905210516 98 273 0.9 3.5 0.00 0.00 0.00 37 1013.7
20260905210030 98 232 1.7 3.5 0.00 0.00 0.00 35 1013.8
20260905205504 100 269 2.6 3.5 0.00 0.00 0.00 35 1013.8
20260905205012 99 344 0.9 6.1 0.00 0.00 0.00 38 1013.8
20260905204535 98 254 0.0 6.1 0.00 0.00 0.00 38 1014.0
20260905204003 98 256 0.0 5.2 0.00 0.00 0.00 39 1014.1
20260905203506 98 282 1.7 5.2 0.00 0.00 0.00 38 1014.1
20260905203024 99 290 0.9 1.7 0.00 0.00 0.00 36 1014.1
20260905202521 98 24 0.0 1.7 0.00 0.00 0.00 36 1014.2
20260905202004 96 24 0.0 1.7 0.00 0.00 0.00 40 1014.3
20260905201522 97 24 0.0 1.7 0.00 0.00 0.00 39 1014.3
20260905201014 97 24 0.9 2.6 0.00 0.00 0.00 40 1014.4
20260905200514 99 98 0.9 2.6 0.00 0.00 0.00 39 1014.4
20260905200026 99 32 0.9 4.3 0.00 0.00 0.00 39 1014.5
20260905195510 99 343 1.7 4.3 0.00 0.00 0.00 41 1014.5
20260905195015 99 338 2.6 4.3 0.00 0.00 0.00 42 1014.5
20260905194512 98 360 0.0 7.0 0.00 0.00 0.00 39 1014.6
20260905194012 99 360 0.9 7.0 0.00 0.00 0.00 39 1014.6
20260905193515 98 342 2.6 7.0 0.00 0.00 0.00 43 1014.7
20260905193030 98 19 0.9 3.5 0.00 0.00 0.00 42 1014.8
20260905192508 98 120 0.9 2.6 0.00 0.00 0.00 42 1014.8
20260905192014 98 24 0.9 1.7 0.00 0.00 0.00 41 1014.9
20260905191530 98 344 0.9 3.5 0.00 0.00 0.00 41 1015.0
20260905191007 97 78 0.9 3.5 0.00 0.00 0.00 40 1015.1
20260905190509 97 99 0.9 5.2 0.00 0.00 0.00 44 1015.1
20260905190028 97 96 2.6 5.2 0.00 0.00 0.00 41 1015.2
20260905185503 97 16 1.7 2.6 0.00 0.00 0.00 42 1015.3
20260905185007 97 115 0.0 3.5 0.00 0.00 0.00 41 1015.4
20260905184543 97 20 0.9 4.3 0.00 0.00 0.00 42 1015.5
20260905184003 97 352 1.7 6.1 0.00 0.00 0.00 45 1015.6
20260905183505 97 17 3.5 6.1 0.00 0.00 0.00 44 1015.6
20260905183036 96 243 0.9 2.6 0.00 0.00 0.00 49 1015.7
20260905182513 96 219 1.7 3.5 0.00 0.00 0.00 41 1015.8
20260905182004 95 146 0.9 3.5 0.00 0.00 0.00 43 1015.9
20260905181521 96 121 0.9 3.5 0.00 0.00 0.00 46 1016.0
20260905181013 97 26 0.9 7.0 0.00 0.00 0.00 47 1016.1
20260905180505 96 263 1.7 5.2 0.00 0.00 0.00 42 1016.1
20260905180019 96 352 1.7 5.2 0.00 0.00 0.00 43 1016.2
20260905175510 96 16 0.9 5.2 0.00 0.00 0.00 43 1016.3
20260905175015 96 42 2.6 5.2 0.00 0.00 0.00 45 1016.3
20260905174510 96 345 2.6 7.0 0.00 0.00 0.00 45 1016.4
20260905174009 96 331 4.3 7.0 0.00 0.00 0.00 46 1016.4
20260905173512 97 337 0.9 2.6 0.00 0.00 0.00 45 1016.5
20260905173009 96 352 0.9 2.6 0.00 0.00 0.00 47 1016.6
20260905172507 96 26 0.9 3.5 0.00 0.00 0.00 47 1016.6